Tracking 17925 objects as of 21-January-2017
HD Live streaming from Space Station
objects crossing your sky now

MAQSAT H

Track MAQSAT H now!
10-day predictions
MAQSAT H is classified as:


NORAD ID: 25023
Int'l Code: 1997-066A
Perigee: 583.8 km
Apogee: 26,414.2 km
Inclination: 7.8 °
Period: 464.6 minutes
Semi major axis: 19869 km
RCS: 21.0323 m2 (large)
Launch date: October 30, 1997
Source: European Space Agency (ESA)
Launch site: FRENCH GUIANA (FRGUI)
Your satellite tracking list
Your tracking list is empty





NASA's NSSDC Master Catalog

Two Line Element Set (TLE):
1 25023U 97066A   17018.40148678 -.00000004  00000-0  58391-3 0  9999
2 25023   7.7741 100.0406 6499846 331.1644  20.7610  3.09960873217280
Source of the keplerian elements: AFSPC